www.pogodaiklimat.ru
Время
и дата
16:51 29.12
17:51 29.12
18:51 29.12
19:51 29.12
20:51 29.12
21:51 29.12
22:51 29.12
23:51 29.12
00:51 30.12
01:51 30.12
02:51 30.12
03:51 30.12
04:51 30.12
05:51 30.12
06:51 30.12
07:51 30.12
08:51 30.12
09:51 30.12
10:51 30.12
11:51 30.12
12:51 30.12
13:51 30.12
14:51 30.12
15:51 30.12
16:51 30.12
17:51 30.12
18:51 30.12
19:51 30.12
20:51 30.12
21:51 30.12
22:51 30.12
23:51 30.12
00:51 31.12
01:51 31.12
02:51 31.12
03:51 31.12
04:51 31.12
05:51 31.12
06:51 31.12
07:51 31.12
08:51 31.12
09:51 31.12
10:51 31.12
11:51 31.12
12:51 31.12
13:51 31.12
14:51 31.12
15:51 31.12
Ветер
(напр.,м/с)
Видим. Явления Облачность Т
(С)
Тd
(С)
f
(%)
Тe
(С)
Тes
(С)
Комфортность P
(гПа)
Po
(гПа)
Тmin
(С)
Tmax
(С)
R
(мм)
R24
(мм)
S
(см)
З 3 16 км ясно +15.0 -9.4 18 +14 +14 1007.0 882.5 +15.0 +17.8
З 2 16 км ясно +12.2 -8.9 22 +10 +10 1008.0 883.1
ЮЗ 3 16 км ясно +10.6 -9.4 24 +8 +8 1009.3 884.0
З 2 16 км ясно +6.7 -10.6 28 +4 +4 1010.2 884.9
З 1 16 км ясно +7.8 -10.0 27 +6 +6 1009.2 884.6
ЮЗ 2 16 км ясно +5.0 -9.4 34 +1 +1 1010.0 885.2
ЮЗ 3 16 км ясно +6.1 -9.4 32 +2 +2 1009.3 884.9 +3.3 +15.0
З 2 16 км ясно +3.9 -10.6 34 0 0 1009.6 884.9
штиль 0 16 км ясно +2.8 -10.6 37 +3 +3 1009.6 884.9
З 1 16 км ясно +1.7 -10.0 41 -2 -2 1009.6 884.9
З 2 16 км ясно +2.8 -8.9 42 -1 -1 1009.7 885.2
З 2 16 км ясно +8.9 -5.6 35 +6 +6 1008.8 885.2
З 2 16 км ясно +7.8 -6.1 37 +5 +5 1009.7 885.5 -0.6 +8.9
З 2 16 км ясно +7.8 -6.1 37 +5 +5 1010.7 886.0
СВ 1 16 км ясно 0.0 -9.4 49 -4 -4 1012.5 886.3
штиль 0 16 км ясно +0.6 -8.9 49 0 0 1013.4 886.9
С 1 16 км ясно +2.2 -8.3 46 -1 -1 1013.7 887.5
СВ 1 16 км ясно +5.6 -6.1 43 +4 +6 1013.9 887.5
СЗ 1 16 км ясно +8.3 -5.0 39 +7 +12 1012.6 886.9 -0.6 +8.3
В 1 16 км ясно +12.2 -4.4 31 +11 +16 1010.8 885.7
нст 1 16 км ясно +15.0 -3.3 28 +15 +22 1008.9 884.3
штиль 0 16 км ясно +17.2 -4.4 22 +17 +26 1008.0 883.7
Ю 1 16 км ясно +16.1 -5.6 22 +16 +21 1007.5 883.1
штиль 0 16 км 10/0 3300 м
[Ac]
+16.7 -5.0 22 +17 +18 1006.0 882.8
ЮВ 1 16 км 2/0 3600 м
[Ac]
+15.0 -5.6 24 +15 +16 1006.8 883.1 +8.3 +17.2
штиль 0 16 км 8/0 3300 м
[Ac]
+12.8 -5.6 27 +13 +13 1007.3 883.4
ЮЗ 2 16 км ясно +12.2 -3.3 34 +11 +11 1008.9 883.4
ЮЗ 2 16 км 2/0 3300 м
[Ac]
+12.8 -2.2 35 +11 +11 1008.6 883.4
Ю 2 16 км ясно +11.1 -1.7 41 +9 +9 1008.7 883.4
Ю 3 16 км ясно +10.0 +0.6 52 +7 +7 1008.2 883.4
ЮЗ 3 16 км ясно +10.0 +1.7 56 +7 +7 1007.5 883.1 +10.0 +15.0
ЮВ 1 16 км ясно +8.9 +1.7 61 +7 +7 1007.1 883.1
ЮВ 1 16 км ясно +8.9 +1.1 58 +8 +8 1006.0 882.5
Ю 1 16 км ясно +8.9 +1.7 61 +7 +7 1005.6 882.5
Ю 2 16 км ясно +9.4 +2.2 61 +7 +7 1005.1 881.9
Ю 2 16 км ясно +10.0 +2.8 61 +8 +8 1004.5 881.6
Ю 3 16 км 2/2 1650 м +11.1 +3.9 61 +8 +8 1004.2 881.3 +8.3 +11.1
Ю 2 16 км ясно +10.6 +3.9 63 +8 +8 1004.6 881.0
Ю 2 16 км ясно +11.1 +4.4 63 +9 +9 1004.6 881.3
Ю 3 16 км 10/0 3300 м
[Ac]
+12.2 +5.0 61 +10 +10 1004.6 881.3
Ю 3
{5}
16 км 10/0 3000 м
[Ac]
+13.3 +5.0 57 +11 +11 1004.6 881.3
Ю 2 11 км слабый дождь 10/8 1800 м
[Ac]
+11.7 +6.7 71 +10 +10 1005.6 881.9
ЮВ 2 16 км слабый дождь 10/10 1950 м +11.7 +8.3 80 +10 +10 1005.0 881.3 +10.0 +13.3 0.8
Ю 2 16 км 8/0 2550 м
[Ac]
+12.8 +7.8 72 +11 +12 1003.4 880.1
Ю 3 16 км 10/0 2700 м
[Ac]
+12.2 +8.3 77 +10 +10 1002.5 879.2
Ю 3 16 км 10/0 2850 м
[Ac]
+13.3 +7.8 69 +11 +12 1001.3 878.3 0.3
Ю 3 16 км 10/0 3300 м
[Ac]
+14.4 +5.6 55 +12 +13 999.9 877.2
ЮЗ 5
{8}
16 км 2/0 3600 м
[Ac]
+15.0 +3.3 45 +12 +12 998.9 876.6
Местоположение метеостанции Roswell Industrial Air Center Airport: широта 33.3081 долгота -104.5078 высота над уровнем моря 1118 м.
В архиве по умолчанию представлена погода в Росвелле за последние 1-2 суток. Обновление информации о фактической погоде в базе происходит ежечасно! Архивные данные за месяц целиком и за предыдущие месяцы Вы можете получить, выбрав интересующий диапазон дат из раскрывающегося списка и нажав кнопку "Ввод!".
Внимание! Архив погоды МЕТАР в базе сайта по станциям, не включенным в климатический монитор, хранится не более 60 дней. Нет смысла пытаться выбрать более раннюю дату.
*Определитесь, кто Вы:
Внимание! Время в таблицах - местное (без учета летнего времени). Для получения всемирного времени необходимо вычесть поправку, которая равна -7 ч.
Смотрите также архив погоды в соседних городах и на ближайших метеорологических станциях:
Партнеры нашего сайта:      
Пояснения к столбцам:
  • Ветер - указаны скорость ветра в м/с - средняя за 10 мин, порывы в срок и между сроками (в фигурных скобках) и направление, откуда дует ветер: С - северный,
  • СВ - северо-восточный, В - восточный, ЮВ - юго-восточный, Ю - южный, ЮЗ - юго-западный, З - западный, СЗ - северо-западный.
  • Видимость - горизонтальная дальность видимости в метрах или километрах. При видимости от 1 до 10 км при отсутствии осадков обычно наблюдается дымка, при ухудшении видимости до 1 км и менее - туман. В сухую погоду видимость может ухудшаться дымом, пылью или мглою.
  • Явления - указаны атмосферные явления, наблюдавшиеся в срок или в последний час перед сроком; фигурными скобками обозначены явления, наблюдавшиеся между сроками (за 1-3 часа до срока); квадратными скобками обозначены град или гололедные отложения с указанием их диаметра в мм.
  • Облачность - указаны через наклонную черту общая и нижняя облачность в баллах и высота нижней границы облаков в метрах; квадратными скобками обозначены формы облаков: Ci - перистые, Cs - перисто-слоистые, Cc - перисто-кучевые, Ac - высококучевые, As - высокослоистые, Sc - слоисто-кучевые, Ns - слоисто-дождевые, Cu - кучевые, Cb - кучево-дождевые. Подробнее классификацию облаков см. в Атласе облаков (PDF).
  • T - Температура воздуха - температура, измеренная на высоте 2 м над землей.
  • Td - Температура точки росы - температура, при понижении до которой содержащийся в воздухе водяной пар достигнет насыщения.
  • f - Относительная влажность воздуха - влажноcть воздуха, измеренная на высоте 2 м над землей.
  • Te - Эффективная температура - температура, которую ощущает одетый по сезону человек в тени. Характеристика душности погоды. При расчете учитывается влияние влажности воздуха и скорости ветра на теплоощущения человека.
  • Tes - Эффективная температура на солнце - температура, которую ощущает человек, с поправкой на солнечный нагрев. Характеристика знойности погоды. Зависит от высоты солнца над горизонтом, облачности и скорости ветра. Ночью, в пасмурную погоду, а также при ветре 12 м/с и более поправка равна нулю.
  • P - Атмосферное давление - приведенное к уровню моря атмосферное давление.
  • Po - Атмосферное давление - измеренное на уровне метеостанции атмосферное давление.
  • Tmin - Минимальная температура - минимум температуры воздуха на высоте 2 м над землей.
  • Tmax - Максимальная температура - максимум температуры воздуха на высоте 2 м над землей.
  • R - Количество осадков - Количество выпавших осадков за период времени, мм. При наведении курсора мыши на число - период времени, за который выпало указанное количество осадков.
  • R24 - Количество осадков - Количество выпавших осадков за 24 часа, мм.
  • S - Снежный покров - Высота снежного покрова, см. При наведении курсора мыши на число - состояние снежного покрова и степень покрытия местности в баллах.